星链-1262 (STARLINK-1262 )

导读

STARLINK-1262是美国太空探索技术公司Starlink卫星互联网计划中的一颗卫星,于2020年3月18日发射升空,属于该项目早期批产组网卫星。它运行在近地轨道,旨在为全球提供高速低延迟互联网覆盖,服务包括偏远地区接入、移动网络互联等场景,是Starlink星座组网建设过程中的组成单元。

基本信息
目录编号:
45366
目录名称:
STARLINK-1262
国际标识:
2020-019G
轨道中心:
EARTH
卫星名称:
星链-1262
卫星全名:
星链-1262 (STARLINK-1262 )
卫星状态:
在轨 (已飞行2368 天)
发射日期:
2020-03-18 UTC
国别 :
美国 (US)
星等 :
--
该卫星已列入 空间交会检测服务 Space Conjunction Data Service (SCDS) ,当前飞行风险评估等级: 无高风险
轨道信息
数据来源 国际轨道数据
星历时间: 2026-09-10T21:56:46+0800
17小时前
查看轨道信息
半长轴: 6818.875km
偏心率: 0.000163
轨道倾角: 53.151°
近地点辐角 37.101°
升交点赤经 20.559°
平近点角 323.010°
近地点: 439.626km
远地点: 441.85km
周期: 93.396分钟
每日圈数: 15.418203
详细信息
固有亮度:
5
最大亮度:
2.5
卫星平台:
Starlink V1.0
覆盖范围:
全球
运营商:
太空探索技术公司
运营商所在国:
美国
制造商(研发单位):
太空探索技术公司
制造商所在国:
美国
使用方式:
暂无
卫星简介
星链(Starlink)计划是由太空探索技术公司(SpaceX)提出的一个巨型低轨卫星互联网星座项目,计划在2019年至2024年间在太空搭建由约1.2万颗卫星组成的“星链”网络,其中1584颗将部署在地球上空550千米处的近地轨道,并从2020年开始工作。该卫星仍在工作。
2D轨道图
3D轨道图
轨道高度分析图
轨道倾角分析图
轨道综合分析图
查看轨道综合分析图
与全量物体交会距离演化趋势
与全量物体交会风险概率演化趋势